Bridgeport, WV

1:13 PM EST on February 10, 2016 (GMT -0500)
Benedum

Weather History for KCKB - January, 2013

Change the Weather History Date:

Wednesday, January 16, 2013

  Actual Average Record
Temperature  
Mean Temperature 34 °F -  
Max Temperature 36 °F 36 °F 65 °F (1932)
Min Temperature 33 °F 19 °F -6 °F (1972)
Degree Days  
Heating Degree Days 30    
Moisture  
Dew Point 34 °F    
Average Humidity 94    
Maximum Humidity 100    
Minimum Humidity 86    
Precipitation  
Precipitation 0.46 in - - ()
Sea Level Pressure  
Sea Level Pressure 29.96 in    
Wind  
Wind Speed 3 mph (WSW)    
Max Wind Speed 10 mph    
Max Gust Speed -    
Visibility 5 miles    
Events Rain    
Averages and records for this station are not official NWS values.
T = Trace of Precipitation, MM = Missing Value Source: NWS Daily Summary

Daily Weather History Graph

Daily Weather History Graph

Search for Another Location

Airport or City:

Trip Planner

Search our weather history database for the weather conditions in past years. The results will help you decide how hot, cold, wet, or windy it might be!

Date:

Astronomy

Jan. 16, 2013 Rise Set
Actual Time 7:38 AM EST 5:23 PM EST
Civil Twilight 7:09 AM EST 5:52 PM EST
Nautical Twilight 6:36 AM EST 6:25 PM EST
Astronomical Twilight 6:04 AM EST 6:57 PM EST
Moon 10:16 AM EST (1/16) 11:10 PM EST (1/16)
Length of Visible Light 10h 43m
Length of Day
9h 44m
Waxing Crescent, 28% of the Moon is Illuminated
Jan 16
Waxing Crescent
Jan 18
First Quarter
Jan 26
Full
Feb 3
Last Quarter
Feb 10
New

Hourly Weather History & Observations

Time (EST) Temp. Windchill Dew Point Humidity Pressure Visibility Wind Dir Wind Speed Gust Speed Precip Events Conditions
12:26 AM 33.8 °F - 30.2 °F 87% 30.01 in 2.5 mi Calm Calm - 0.04 in Rain Light Rain
12:51 AM 33.8 °F - 33.8 °F 100% 30.00 in 3.0 mi Calm Calm - 0.12 in Rain Light Rain
12:53 AM 34.0 °F - 32.0 °F 92% 30.02 in 3.0 mi Calm Calm - 0.13 in Rain Light Rain
1:34 AM 33.8 °F - 32.0 °F 93% 29.99 in 2.0 mi Calm Calm - 0.10 in Rain Light Rain
1:53 AM 34.0 °F - 32.0 °F 92% 30.00 in 2.5 mi Calm Calm - 0.11 in Rain Light Rain
2:10 AM 33.8 °F - 33.8 °F 100% 29.99 in 3.0 mi Calm Calm - 0.01 in Rain Light Rain
2:21 AM 33.8 °F - 32.0 °F 93% 29.97 in 2.5 mi Calm Calm - 0.02 in Rain Light Rain
2:31 AM 33.8 °F - 33.8 °F 100% 29.97 in 3.0 mi Calm Calm - 0.02 in Rain Light Rain
2:53 AM 34.0 °F - 33.1 °F 96% 29.95 in 4.0 mi Calm Calm - 0.03 in Rain Light Rain
3:16 AM 33.8 °F 28.6 °F 33.8 °F 100% 29.95 in 0.8 mi WNW 5.8 mph - 0.00 in Rain Light Rain
3:28 AM 33.8 °F 30.8 °F 33.8 °F 100% 29.95 in 2.0 mi NW 3.5 mph - 0.01 in Rain Light Rain
3:31 AM 33.8 °F 30.8 °F 33.8 °F 100% 29.95 in 2.5 mi WNW 3.5 mph - 0.01 in Rain Light Rain
3:39 AM 33.8 °F 29.6 °F 33.8 °F 100% 29.97 in 2.5 mi WNW 4.6 mph - 0.01 in Rain Light Rain
3:43 AM 33.8 °F 28.6 °F 33.8 °F 100% 29.96 in 2.5 mi WNW 5.8 mph - 0.01 in Rain Light Rain
3:50 AM 33.8 °F 30.8 °F 33.8 °F 100% 29.96 in 3.0 mi NW 3.5 mph - 0.01 in Rain Light Rain
3:53 AM 34.0 °F 31.0 °F 33.1 °F 96% 29.98 in 3.0 mi WNW 3.5 mph - 0.02 in Rain Light Rain
3:59 AM 33.8 °F 30.8 °F 33.8 °F 100% 29.96 in 2.5 mi NW 3.5 mph - 0.00 in Rain Light Rain
4:24 AM 35.6 °F 32.8 °F 33.8 °F 93% 29.96 in 3.0 mi NNW 3.5 mph - 0.01 in Rain Light Rain
4:36 AM 35.6 °F - 33.8 °F 93% 29.96 in 2.5 mi Calm Calm - 0.02 in Rain Light Rain
4:53 AM 34.0 °F - 33.1 °F 96% 29.96 in 3.0 mi Calm Calm - 0.03 in Rain Light Rain
5:25 AM 35.6 °F - 33.8 °F 93% 29.93 in 6.0 mi Calm Calm - 0.01 in Rain Light Rain
5:53 AM 35.1 °F - 33.1 °F 92% 29.94 in 4.0 mi Calm Calm - 0.02 in Rain Light Rain
6:21 AM 35.6 °F 32.8 °F 33.8 °F 93% 29.92 in 2.0 mi SW 3.5 mph - 0.00 in Rain Light Rain
6:30 AM 35.6 °F 30.7 °F 33.8 °F 93% 29.90 in 2.0 mi SSE 5.8 mph - 0.01 in Rain Light Rain
6:45 AM 35.6 °F 28.0 °F 33.8 °F 93% 29.86 in 2.0 mi SSE 10.4 mph - 0.01 in Rain Light Rain
6:53 AM 35.1 °F 28.6 °F 34.0 °F 96% 29.88 in 2.0 mi South 8.1 mph - 0.01 in   Overcast
7:23 AM 35.6 °F 29.2 °F 35.6 °F 100% 29.90 in 9.0 mi WNW 8.1 mph - 0.00 in Rain Light Rain
7:53 AM 36.0 °F - 35.1 °F 97% 29.93 in 6.0 mi Calm Calm - 0.02 in Rain Light Rain
8:45 AM 35.6 °F 32.8 °F 35.6 °F 100% 29.91 in 4.0 mi SSW 3.5 mph - 0.03 in Rain Light Rain
8:53 AM 36.0 °F 32.1 °F 35.1 °F 97% 29.94 in 4.0 mi WNW 4.6 mph - 0.03 in Rain Light Rain
9:34 AM 35.6 °F - 35.6 °F 100% 29.92 in 10.0 mi Calm Calm - 0.00 in Rain Light Rain
9:53 AM 36.0 °F - 34.0 °F 93% 29.88 in 10.0 mi Calm Calm - 0.01 in   Overcast
10:53 AM 36.0 °F 31.1 °F 34.0 °F 93% 29.93 in 10.0 mi West 5.8 mph - N/A   Overcast
11:53 AM 36.0 °F 31.1 °F 35.1 °F 97% 29.94 in 3.0 mi WSW 5.8 mph - N/A   Overcast
12:11 PM 35.6 °F 29.9 °F 33.8 °F 93% 29.92 in 2.0 mi WSW 6.9 mph - 0.01 in Rain Light Rain
12:53 PM 36.0 °F 30.3 °F 34.0 °F 93% 29.96 in 2.5 mi WSW 6.9 mph - 0.02 in Rain Light Rain
1:03 PM 35.6 °F 29.9 °F 33.8 °F 93% 29.96 in 3.0 mi WSW 6.9 mph - 0.01 in Rain Light Rain
1:28 PM 35.6 °F 30.7 °F 33.8 °F 93% 29.94 in 2.0 mi SW 5.8 mph - 0.02 in Rain Light Rain
1:51 PM 35.6 °F 29.9 °F 33.8 °F 93% 29.96 in 3.0 mi WSW 6.9 mph - 0.02 in Rain Light Rain
2:00 PM 35.6 °F 29.9 °F 33.8 °F 93% 29.96 in 3.0 mi SW 6.9 mph - 0.00 in Rain Light Rain
2:07 PM 35.6 °F 29.9 °F 33.8 °F 93% 29.96 in 2.0 mi SW 6.9 mph - 0.01 in Rain Light Rain
2:22 PM 35.6 °F 29.2 °F 33.8 °F 93% 29.95 in 3.0 mi SSW 8.1 mph - 0.01 in Rain Light Rain
2:41 PM 35.6 °F 29.2 °F 33.8 °F 93% 29.94 in 3.0 mi SSW 8.1 mph - 0.01 in   Overcast
2:53 PM 36.0 °F 29.0 °F 34.0 °F 93% 29.97 in 2.5 mi SW 9.2 mph - 0.01 in   Overcast
3:46 PM 35.6 °F 29.2 °F 33.8 °F 93% 29.98 in 3.0 mi SSW 8.1 mph - 0.02 in   Overcast
3:53 PM 36.0 °F 30.3 °F 34.0 °F 93% 29.99 in 5.0 mi South 6.9 mph - 0.02 in   Overcast
4:53 PM 36.0 °F 30.3 °F 34.0 °F 93% 30.00 in 10.0 mi SSW 6.9 mph - N/A   Overcast
5:53 PM 36.0 °F 30.3 °F 34.0 °F 93% 30.01 in 10.0 mi SW 6.9 mph - N/A   Overcast
6:53 PM 36.0 °F 31.1 °F 34.0 °F 93% 30.04 in 10.0 mi WSW 5.8 mph - N/A   Overcast
7:53 PM 36.0 °F 31.1 °F 34.0 °F 93% 30.04 in 10.0 mi SW 5.8 mph - N/A   Overcast
8:40 PM 35.6 °F 29.9 °F 33.8 °F 93% 30.02 in 10.0 mi SW 6.9 mph - N/A   Overcast
8:53 PM 36.0 °F 31.1 °F 33.1 °F 89% 30.05 in 10.0 mi SW 5.8 mph - N/A   Overcast
9:53 PM 36.0 °F 29.6 °F 32.0 °F 86% 30.06 in 10.0 mi SW 8.1 mph - N/A   Mostly Cloudy
10:53 PM 36.0 °F 30.3 °F 32.0 °F 86% 30.04 in 10.0 mi WSW 6.9 mph - N/A   Overcast
11:53 PM 36.0 °F 31.1 °F 32.0 °F 86% 30.06 in 10.0 mi WSW 5.8 mph - N/A   Overcast